Location: Jackson
(42.2460°N, 84.4010°W)
Time: 08:35:40
(UTC-05:00)

ISS - Pass Details

Date: 24 January 2026
Orbit: 413 x 428 km, 51.6° (Epoch: 13 February)

Event Time Altitude Azimuth Distance (km) Brightness Sun altitude
Rises 19:43:51 0° 307° (NW) 2,368 0.8 -22.5°
Reaches altitude 10° 19:46:01 10° 314° (NW) 1,505 -0.4 -22.9°
Enters shadow 19:47:41 25° 330° (NNW) 903 -1.9 -23.2°
